Accueil
METAR-TAF:

METAR-TAF

Aéroports :

Brevoort Island, Nunavut, Canada

latitude: 63-20N, longitude: 064-09W, altitude: 367 m

Observation

Le bulletin a été fait il y a 1 heure et 0 minutes, à 03:14 UTC
Vent 6 kt de nord/nord-est
Température -7°C
Humidité 93%
Pression 988 hPa
Nuages épars à une hauteur de 300 ft
Nuages fragmentés à une hauteur de 4200 ft
Ciel couvert à une hauteur de 6000 ft

METAR: CWOB 120314Z AUTO 03006KT ////SM SCT003 BKN042 OVC060 M07/M08 A2919

Heure: 23:14 (04:14 UTC)


TAF: absent

Observations et prévisions météorologiques de plus de 4000 aéroports (messages METAR et TAF).

Les stations disponibles sont représentées par des disques jaunes et rouges sur la carte.

Passer la souris dessus pour voir le nom de la station.

Cliquer dessus pour voir les observations et prévisions météorologiques.

Pour changer de carte: cliquez sur les boutons verts avec une croix noire pour zoomer, sur le bouton vert avec un tiret pour effectuer un zoom arrière, ou sur les flèches vertes pour les cartes adjacentes.


METAR-TAF: